Crown PT.- Scarborou, Trinidad And Tobago

3:44 PM AST on August 28, 2016 (GMT -0400)
Crown Point

Weather History for TTCP - December, 2013

Change the Weather History Date:

Tuesday, December 31, 2013

  Actual Average Record
Temperature  
Mean Temperature 80 °F -  
Max Temperature 86 °F 83 °F 87 °F (1997)
Min Temperature 75 °F 74 °F 68 °F (2006)
Cooling Degree Days 16    
Growing Degree Days 30 (Base 50)    
Moisture  
Dew Point 73 °F    
Average Humidity 78    
Maximum Humidity 89    
Minimum Humidity 66    
Precipitation  
Precipitation 0.00 in - - ()
Sea Level Pressure  
Sea Level Pressure 29.93 in    
Wind  
Wind Speed 6 mph ()    
Max Wind Speed 18 mph    
Max Gust Speed -    
Visibility 6.0 miles    
Events Rain    
Averages and records for this station are not official NWS values.
T = Trace of Precipitation, MM = Missing Value Source: Averaged Metar Reports

Daily Weather History Graph

Daily Weather History Graph

Search for Another Location

Airport or City:

Trip Planner

Search our weather history database for the weather conditions in past years. The results will help you decide how hot, cold, wet, or windy it might be!

Date:

Astronomy

Dec. 31, 2013 Rise Set
Actual Time 6:21 AM AST 5:51 PM AST
Civil Twilight 5:59 AM AST 6:13 PM AST
Nautical Twilight 5:32 AM AST 6:40 PM AST
Astronomical Twilight 5:06 AM AST 7:06 PM AST
Moon 5:17 AM AST (12/31) 5:13 PM AST (12/31)
Length of Visible Light 12h 14m
Length of Day
11h 29m
Waning Crescent, 1% of the Moon is Illuminated
Dec 31
Waning Crescent
Jan 1
New
Jan 7
First Quarter
Jan 16
Full
Jan 24
Last Quarter

Hourly Weather History & Observations

Time (AST) Temp. Heat Index Dew Point Humidity Pressure Visibility Wind Dir Wind Speed Gust Speed Precip Events Conditions
1:00 AM 77.0 °F - 71.6 °F 83% 29.95 in 6.2 mi NNE 3.5 mph - N/A   Scattered Clouds
2:00 AM 77.0 °F - 71.6 °F 83% 29.92 in 5.6 mi ENE 6.9 mph - N/A   Scattered Clouds
4:00 AM 75.2 °F - 71.6 °F 89% 29.89 in 6.2 mi Calm Calm - N/A   Partly Cloudy
6:00 AM 75.2 °F - 71.6 °F 89% 29.92 in 5.6 mi NE 5.8 mph - N/A   Scattered Clouds
7:00 AM 77.0 °F - 71.6 °F 83% 29.95 in 6.2 mi ENE 6.9 mph - N/A   Mostly Cloudy
8:00 AM 78.8 °F - 73.4 °F 83% 29.98 in 5.6 mi East 10.4 mph - N/A   Scattered Clouds
9:00 AM 80.6 °F 84.6 °F 71.6 °F 74% 29.98 in 6.2 mi ENE 5.8 mph - N/A   Scattered Clouds
10:00 AM 82.4 °F 89.5 °F 75.2 °F 79% 29.98 in 3.7 mi ESE 13.8 mph - N/A   Scattered Clouds
11:00 AM 86.0 °F 93.4 °F 73.4 °F 66% 29.98 in 6.2 mi East 11.5 mph - N/A   Scattered Clouds
12:00 PM 86.0 °F 93.4 °F 73.4 °F 66% 29.95 in 6.2 mi East 18.4 mph - N/A   Scattered Clouds
1:00 PM 86.0 °F 93.4 °F 73.4 °F 66% 29.92 in 6.2 mi East 17.3 mph - N/A   Scattered Clouds
2:00 PM 86.0 °F 93.4 °F 73.4 °F 66% 29.89 in 6.2 mi East 15.0 mph - N/A   Scattered Clouds
3:00 PM 86.0 °F 95.1 °F 75.2 °F 70% 29.89 in 6.2 mi East 17.3 mph - N/A   Scattered Clouds
4:00 PM 84.2 °F 92.3 °F 75.2 °F 74% 29.89 in 6.2 mi East 11.5 mph - N/A   Scattered Clouds
5:00 PM 82.4 °F 88.2 °F 73.4 °F 74% 29.89 in 6.2 mi Calm Calm - N/A Rain Light Rain Showers
6:00 PM 78.8 °F - 71.6 °F 78% 29.89 in 6.2 mi ENE 4.6 mph - N/A   Partly Cloudy
7:00 PM 77.0 °F - 71.6 °F 83% 29.92 in 6.2 mi Calm Calm - N/A   Partly Cloudy
8:00 PM 77.0 °F - 69.8 °F 78% 29.92 in 6.2 mi ENE 3.5 mph - N/A   Partly Cloudy
9:00 PM 77.0 °F - 71.6 °F 83% 29.95 in 6.2 mi ENE 5.8 mph - N/A   Partly Cloudy
10:00 PM 77.0 °F - 71.6 °F 83% 29.95 in 6.2 mi ENE 4.6 mph - N/A   Partly Cloudy
11:00 PM 77.0 °F - 71.6 °F 83% 29.95 in 6.2 mi ENE 5.8 mph - N/A   Partly Cloudy